User: anonymous   Login
Location: Unspecified
(0.0000°N, 0.0000°E)
Time: 13:01:22
(UTC+00:00)
Language:

UME 1 - Orbit

View from above orbital plane
View from above orbital plane
View from above satellite
View from above satellite

Ground track
Ground track

The orbit data is extracted from the following two-line orbital elements,

1 08709U 76019A   21015.55790163 -.00000015  00000-0  40581-4 0  9991
2 08709  69.6747 298.8677 0008942 148.6055  24.5033 13.71437527245776
Epoch (UTC): 15 January 2021 13:23:22
Eccentricity: 0.0008942
inclination: 69.6747°
perigee height: 988 km
apogee height: 1001 km
right ascension of ascending node: 298.8677°
argument of perigee: 148.6055°
revolutions per day: 13.71437527
mean anomaly at epoch: 24.5033°
orbit number at epoch: 24577

The dashed part of the orbit path shows where the satellite is in the earth's shadow,  

DLR